Regional Weather Roundup
Issued by NWS

Home | Current Version | Previous Version | Text Only | Print | Product List | Glossary Off
Versions: 1 2 3 4 5 6 7 8 9 10 11 12 13 14 15 16 17 18 19 20 21 22 23 24 25 26 27 28 29 30 31 32 33 34 35 36 37 38 39 40 41 42 43 44 45 46 47 48 49 50

173
ASUS43 KOAX 200902
RWRNE

WEATHER ROUNDUP FOR NEBRASKA
NATIONAL WEATHER SERVICE OMAHA NE
300 AM CST MON NOV 20 2017

NOTES: SATELLITE DATA IS BEING USED TO AUGMENT CLOUD COVER ABOVE
       12000 FEET.
       "FAIR" INDICATES FEW OR NO CLOUDS BELOW 12,000 FEET WITH NO
       SIGNIFICANT WEATHER AND/OR OBSTRUCTIONS TO VISIBILITY.


NEZ001>004-019>022-054>056-201000-
NEBRASKA PANHANDLE

CITY           SKY/WX    TMP DP  RH WIND       PRES   REMARKS
SCOTTSBLUFF    CLOUDY    46   9  22 W20G32    29.78F
ALLIANCE       CLOUDY    39  14  36 W15       29.75F WCI  31
CHADRON        CLOUDY    26  17  68 SW5       29.74F WCI  20
GORDON         FAIR      32  16  51 SW10      29.71F WCI  23
KIMBALL        CLOUDY    44   6  20 W18       29.82S
SIDNEY         CLOUDY    25  10  53 SW10      29.82F WCI  15
$$

NEZ057>060-069>072-079>082-201000-
SOUTHWEST NEBRASKA

CITY           SKY/WX    TMP DP  RH WIND       PRES   REMARKS
NORTH PLATTE   CLOUDY    22  19  89 W3        29.80F
IMPERIAL       CLOUDY    26  17  68 W9        29.82F WCI  17
LEXINGTON      CLOUDY    34  22  61 W5        29.80S WCI  30
MCCOOK         CLEAR     31  22  69 W13       29.83F WCI  21
OGALLALA       CLOUDY    29  20  69 SW7       29.81S WCI  21
$$

NEZ005>010-023>029-035>040-094-201000-
NORTH CENTRAL NEBRASKA

CITY           SKY/WX    TMP DP  RH WIND       PRES   REMARKS
VALENTINE      CLOUDY    32  17  54 W7        29.68F WCI  26
AINSWORTH      CLEAR     36  18  49 SW12      29.70S WCI  27
BROKEN BOW     CLOUDY    35  22  58 W8        29.76F WCI  29
O`NEILL        CLEAR     33  26  75 SW8       29.71S WCI  26
ORD            CLOUDY    34  24  67 S5        29.75F WCI  30
THEDFORD       CLOUDY    37  17  45 W9        29.74F WCI  30
$$

NEZ041-046>049-061>064-073>077-083>087-201000-
SOUTH CENTRAL NEBRASKA

CITY           SKY/WX    TMP DP  RH WIND       PRES   REMARKS
GRAND ISLAND   CLOUDY    38  27  64 SW10      29.79F WCI  31
AURORA         CLOUDY    33  25  71 SW9       29.80F WCI  25
HASTINGS       CLOUDY    34  24  67 SW5       29.81F WCI  30
HEBRON         CLOUDY    40  23  50 SW8       29.85F
HOLDREGE       CLOUDY    37  26  62 SW12      29.81S WCI  30
KEARNEY        CLOUDY    32  25  75 SW6       29.80F WCI  26
$$

NEZ011>018-030>034-042>045-201000-
NORTHEAST NEBRASKA

CITY           SKY/WX    TMP DP  RH WIND       PRES   REMARKS
NORFOLK        CLEAR     34  25  69 SW9       29.74F WCI  27
ALBION         CLOUDY    34  25  69 S3        29.76F
COLUMBUS       CLOUDY    30  24  78 S3        29.79F
FREMONT        CLOUDY    38  25  59 S8        29.81F WCI  32
TEKAMAH        CLEAR     33  24  69 SE9       29.80F WCI  25
WAYNE          CLEAR     33  24  69 S9        29.74F WCI  25
$$

NEZ050>053-065>068-078-088>093-201000-
SOUTHEAST NEBRASKA

CITY           SKY/WX    TMP DP  RH WIND       PRES   REMARKS
LINCOLN        CLOUDY    35  24  64 SE6       29.85F WCI  30
OMAHA EPPLEY   CLOUDY    36  26  67 S13       29.84F WCI  27
BEATRICE       CLOUDY    40  26  57 S9        29.87S WCI  33
FALLS CITY     CLOUDY    43  26  51 S10       29.90F
NEBRASKA CITY  CLOUDY    38  28  66 SW12      29.87S WCI  31
PLATTSMOUTH    CLOUDY    39  28  62 S10       29.84F WCI  33
$$

NEZ044-045-051>053-067-201000-
OMAHA AREA

CITY           SKY/WX    TMP DP  RH WIND       PRES   REMARKS
OMAHA EPPLEY   CLOUDY    36  26  67 S13       29.84F WCI  27
FREMONT        CLOUDY    38  25  59 S8        29.81F WCI  32
MILLARD        CLOUDY    38  27  64 SE5       29.83F WCI  34
OFFUTT AFB     CLOUDY    33  26  78 SE7       29.84F WCI  26
PLATTSMOUTH    CLOUDY    39  28  62 S10       29.84F WCI  33
WAHOO          FAIR      33  24  70 S6        29.81F WCI  27
$$




USA.gov is the U.S. government's official web portal to all federal, state and local government web resources and services.